FLOCK 4BE 33

导读

FLOCK 4BE 33是美国Planet Labs公司“鸽群”(Flock)星座下的一颗微型遥感卫星,于2024年8月16日发射入轨。作为Flock系列卫星的最新迭代成员,它继承了该系列10×10×11.35立方厘米的标准立方星设计,重量不足1.33公斤。 该卫星依托Flock星座的全球对地观测网络,可提供优于2.5米分辨率的多光谱遥感影像,服务于农业监测、自然资源管理、灾害应急响应等商业与公益领域,是Planet Labs持续扩充高重访频率地球观测能力的重要组成部分。

Basic Information
目录编号:
60502
目录名称:
FLOCK 4BE 33
国际标识:
2024-149AL
轨道中心:
EARTH
卫星名称:
FLOCK 4BE 33
卫星全名:
FLOCK 4BE 33
卫星状态:
已陨落 最后检测时间 2026-05-11
发射日期:
2024-08-16 UTC
国别 :
美国 (US)
星等 :
--
Orbit Information
数据来源 国际轨道数据
星历时间: 2026-05-10T12:43:32+0800
轨道信息已过期123天
半长轴: 6583.243km
偏心率: 0.0013224
轨道倾角: 97.361°
近地点辐角 270.652°
升交点赤经 219.117°
平近点角 89.326°
近地点: 196.4km
远地点: 213.812km
周期: 88.597分钟
每日圈数: 16.253355
Detailed Information
使用方式:
暂无
Miss Distance Evolution Trend with All Objects
Collision Probability Evolution Trend with All Objects